User: anonymous   Login
Location: ??????
(42.0089°N, 44.3281°E)
Time: 06:53:00
(UTC+00:00)
Language:

CORIOLIS - Orbit

View from above orbital plane
View from above orbital plane
View from above satellite
View from above satellite

Ground track
Ground track

The orbit data is extracted from the following two-line orbital elements,

1 27640U 03001A   22023.91765403  .00000024  00000-0  32243-4 0  9991
2 27640  98.7203  35.2067 0014702 149.9131 270.2635 14.19098903986478
Epoch (UTC): 23 January 2022 22:01:25
Eccentricity: 0.0014702
inclination: 98.7203°
perigee height: 818 km
apogee height: 839 km
right ascension of ascending node: 35.2067°
argument of perigee: 149.9131°
revolutions per day: 14.19098903
mean anomaly at epoch: 270.2635°
orbit number at epoch: 98647

The dashed part of the orbit path shows where the satellite is in the earth's shadow,  

DLR